Tracking 35036 objects as of 15-Aug-2026
HD Live streaming from Space Station
objects crossing your sky now

FREGAT DEB


NORAD ID: 43395
Int'l Code: 2011-023J
Launch date: June 7, 2011
Source: Commonwealth of Independent States (former USSR) (CIS)
Launch site: TYURATAM MISSILE AND SPACE COMPLEX (TTMTR)

Note: This is SATELLITE DEBRIS
Your satellite tracking list
Your tracking list is empty




NASA's NSSDC Master Catalog

Two Line Element Set (TLE):
1 43395U 11001J   26046.20062002 -.00000236  00000-0  00000-0 0  9999
2 43395  10.0563  43.8552 0101231  55.3124   5.9388  1.02850450 52797
Source of the keplerian elements: AFSPC